FW4110 Weather Reports


Display with metric or nautical units.
time (UTC)temp
F
wind
direction
speed
MPH
gust
MPH
rain 1hr
in
rain 24hr
in
rain mn
in
humidity
%
barometer
mb
20260506164547 55 334 3.0 11.0 0.00 0.36 0.00 60 1019.7
20260506163032 54 17 3.0 11.0 0.00 0.36 0.00 66 1019.7
20260506161528 52 358 4.0 6.0 0.00 0.36 0.00 74 1019.5
20260506160024 52 354 3.0 6.0 0.00 0.36 0.00 81 1019.6
20260506154521 51 5 3.0 7.0 0.00 0.36 0.00 81 1019.4
20260506153018 50 3 0.0 0.0 0.00 0.36 0.00 87 1019.1
20260506151516 50 349 0.0 4.0 0.00 0.36 0.00 92 1019.1
20260506150017 49 353 2.0 5.0 0.00 0.36 0.00 92 1018.7
20260506144512 49 344 0.0 1.0 0.00 0.42 0.00 92 1018.8
20260506143009 48 338 0.0 7.0 0.00 0.42 0.00 92 1018.9
20260506141506 48 9 4.0 8.0 0.00 0.42 0.00 92 1018.7
20260506140005 48 20 1.0 7.0 0.00 0.42 0.00 92 1018.7
20260506134559 48 348 0.0 4.0 0.00 0.42 0.00 92 1018.6
20260506133106 47 346 0.0 3.0 0.00 0.42 0.00 92 1018.7
20260506131557 47 330 1.0 3.0 0.00 0.42 0.00 92 1018.6
20260506130051 47 249 1.0 3.0 0.00 0.42 0.00 92 1018.4
20260506124549 47 350 0.0 3.0 0.00 0.42 0.00 91 1018.1
20260506123048 46 50 0.0 0.0 0.00 0.42 0.00 91 1017.6
20260506121553 0 0.0 0.0 0.00 0.42 0.00 1018.1
20260506084533 46 302 0.0 3.0 0.00 0.42 0.04 91 1016.5
20260506083030 45 334 2.0 4.0 0.00 0.42 0.04 91 1016.4
20260506081528 45 4 2.0 4.0 0.00 0.42 0.04 91 1015.9
20260506073026 46 356 0.0 1.0 0.01 0.42 0.04 91 1016.1
20260506071526 45 2 0.0 1.0 0.02 0.42 0.04 91 1015.5
20260506061531 45 136 0.0 0.0 0.02 0.40 0.02 90 1015.2
20260506044552 45 342 0.0 0.0 0.02 0.38 0.38 90 1015.6
20260506043039 45 353 0.0 0.0 0.02 0.37 0.37 90 1014.7
20260506041547 45 353 0.0 0.0 0.02 0.37 0.37 90 1015.0
20260506040042 45 350 0.0 0.0 0.01 0.36 0.36 90 1015.6
20260506034533 45 355 1.0 4.0 0.01 0.36 0.36 90 1015.4
20260506033031 45 354 0.0 0.0 0.00 0.35 0.35 90 1015.8
20260506031534 45 5 0.0 2.0 0.00 0.35 0.35 89 1015.2
20260506030026 45 32 0.0 2.0 0.01 0.35 0.35 89 1014.6
20260506024531 45 22 1.0 2.0 0.01 0.35 0.35 89 1014.5
20260506023020 45 45 0.0 2.0 0.01 0.35 0.35 89 1014.1
20260506021518 45 111 0.0 2.0 0.04 0.35 0.35 89 1014.1
20260506020015 45 42 3.0 5.0 0.06 0.34 0.34 89 1014.6
20260506014512 45 63 2.0 7.0 0.08 0.34 0.34 89 1014.2
20260506013009 45 66 0.0 5.0 0.09 0.33 0.33 89 1014.1
20260506011507 45 43 0.0 2.0 0.11 0.31 0.31 89 1013.9
20260506010003 45 334 1.0 6.0 0.11 0.27 0.27 88 1014.3
20260506004628 45 356 3.0 9.0 0.11 0.26 0.26 88 1013.6
20260506003057 46 3 5.0 10.0 0.09 0.24 0.24 88 1013.5
20260506001551 46 1 2.0 6.0 0.06 0.20 0.20 88 1013.6
20260506000050 46 55 2.0 5.0 0.03 0.16 0.16 88 1013.0
20260505234608 46 346 2.0 5.0 0.04 0.15 0.15 88 1013.1
20260505233042 46 45 1.0 7.0 0.04 0.15 0.15 87 1012.8
20260505231540 46 42 3.0 9.0 0.03 0.14 0.14 86 1012.7
20260505230036 46 346 3.0 9.0 0.02 0.12 0.12 85 1013.1
20260505224534 47 20 4.0 9.0 0.04 0.11 0.11 85 1012.0
20260505223030 47 355 2.0 4.0 0.04 0.11 0.11 84 1012.0
20260505221529 47 337 0.0 2.0 0.04 0.11 0.11 84 1012.2
20260505220026 48 359 1.0 5.0 0.03 0.10 0.10 83 1012.0
20260505214525 48 31 0.0 9.0 0.00 0.07 0.07 82 1012.2
20260505213023 48 55 5.0 10.0 0.00 0.07 0.07 80 1012.0
20260505211519 48 40 3.0 9.0 0.00 0.07 0.07 81 1012.3
20260505210116 48 78 4.0 9.0 0.00 0.07 0.07 80 1012.1
20260505204523 48 44 2.0 7.0 0.00 0.07 0.07 80 1012.6
20260505203012 48 46 2.0 8.0 0.00 0.07 0.07 79 1012.7
20260505201510 49 32 4.0 9.0 0.00 0.07 0.07 75 1013.0
20260505200019 49 36 3.0 10.0 0.00 0.07 0.07 73 1012.4
20260505194507 49 354 4.0 13.0 0.00 0.08 0.07 73 1013.2
20260505193009 50 57 4.0 13.0 0.00 0.08 0.07 69 1013.2
20260505191503 51 12 8.0 18.0 0.00 0.08 0.07 67 1013.1
20260505190107 52 334 6.0 12.0 0.00 0.08 0.07 67 1012.7
20260505184557 53 45 5.0 15.0 0.00 0.08 0.07 66 1012.4
20260505183055 53 59 4.0 12.0 0.00 0.08 0.07 68 1012.1
20260505181552 52 40 3.0 10.0 0.00 0.08 0.07 69 1012.5
20260505180049 52 17 3.0 9.0 0.00 0.08 0.07 71 1012.4
20260505174549 52 61 2.0 8.0 0.00 0.08 0.07 72 1013.2
20260505173049 53 340 3.0 9.0 0.00 0.08 0.07 71 1013.5
20260505171542 54 51 3.0 8.0 0.00 0.08 0.07 68 1012.7
20260505170041 54 63 3.0 7.0 0.00 0.08 0.07 63 1012.6